Year,Month,Day,Hour,Minute,Value (Times are PST for temperature in C)
2014,07,16,00,00,10.50
2014,07,16,00,01,10.50
2014,07,16,00,02,10.40
2014,07,16,00,03,10.40
2014,07,16,00,04,10.50
2014,07,16,00,05,10.50
2014,07,16,00,06,10.50
2014,07,16,00,07,10.50
2014,07,16,00,08,10.50
2014,07,16,00,09,10.60
2014,07,16,00,10,10.60
2014,07,16,00,11,10.60
2014,07,16,00,12,10.50
2014,07,16,00,13,10.50
2014,07,16,00,14,10.50
2014,07,16,00,15,10.50
2014,07,16,00,16,10.50
2014,07,16,00,17,10.50
2014,07,16,00,18,10.50
2014,07,16,00,19,10.50
2014,07,16,00,20,10.50
2014,07,16,00,21,10.50
2014,07,16,00,22,10.50
2014,07,16,00,23,10.50
2014,07,16,00,24,10.50
2014,07,16,00,25,10.50
2014,07,16,00,26,10.60
2014,07,16,00,27,10.50
2014,07,16,00,28,10.50
2014,07,16,00,29,10.50
2014,07,16,00,30,10.50
2014,07,16,00,31,10.50
2014,07,16,00,32,10.50
2014,07,16,00,33,10.40
2014,07,16,00,34,10.50
2014,07,16,00,35,10.50
2014,07,16,00,36,10.50
2014,07,16,00,37,10.50
2014,07,16,00,38,10.50
2014,07,16,00,39,10.50
2014,07,16,00,40,10.40
2014,07,16,00,41,10.40
2014,07,16,00,42,10.40
2014,07,16,00,43,10.40
2014,07,16,00,44,10.40
2014,07,16,00,45,10.40
2014,07,16,00,46,10.40
2014,07,16,00,47,10.40
2014,07,16,00,48,10.40
2014,07,16,00,49,10.40
2014,07,16,00,50,10.40
2014,07,16,00,51,10.30
2014,07,16,00,52,10.30
2014,07,16,00,53,10.30
2014,07,16,00,54,10.30
2014,07,16,00,55,10.30
2014,07,16,00,56,10.30
2014,07,16,00,57,10.30
2014,07,16,00,58,10.30
2014,07,16,00,59,10.30
2014,07,16,01,00,10.30
2014,07,16,01,01,10.30
2014,07,16,01,02,10.30
2014,07,16,01,03,10.30
2014,07,16,01,04,10.30
2014,07,16,01,05,10.30
2014,07,16,01,06,10.30
2014,07,16,01,07,10.30
2014,07,16,01,08,10.30
2014,07,16,01,09,10.30
2014,07,16,01,10,10.30
2014,07,16,01,11,10.30
2014,07,16,01,12,10.30
2014,07,16,01,13,10.30
2014,07,16,01,14,10.30
2014,07,16,01,15,10.30
2014,07,16,01,16,10.30
2014,07,16,01,17,10.30
2014,07,16,01,18,10.30
2014,07,16,01,19,10.30
2014,07,16,01,20,10.30
2014,07,16,01,21,10.30
2014,07,16,01,22,10.30
2014,07,16,01,23,10.30
2014,07,16,01,24,10.30
2014,07,16,01,25,10.30
2014,07,16,01,26,10.30
2014,07,16,01,27,10.30
2014,07,16,01,28,10.30
2014,07,16,01,29,10.30
2014,07,16,01,30,10.30
2014,07,16,01,31,10.30
2014,07,16,01,32,10.30
2014,07,16,01,33,10.30
2014,07,16,01,34,10.30
2014,07,16,01,35,10.30
2014,07,16,01,36,10.30
2014,07,16,01,37,10.30
2014,07,16,01,38,10.30
2014,07,16,01,39,10.30
2014,07,16,01,40,10.30
2014,07,16,01,41,10.30
2014,07,16,01,42,10.30
2014,07,16,01,43,10.30
2014,07,16,01,44,10.30
2014,07,16,01,45,10.30
2014,07,16,01,46,10.30
2014,07,16,01,47,10.30
2014,07,16,01,48,10.30
2014,07,16,01,49,10.30
2014,07,16,01,50,10.30
2014,07,16,01,51,10.30
2014,07,16,01,52,10.30
2014,07,16,01,53,10.20
2014,07,16,01,54,10.30
2014,07,16,01,55,10.30
2014,07,16,01,56,10.30
2014,07,16,01,57,10.20
2014,07,16,01,58,10.20
2014,07,16,01,59,10.20
2014,07,16,02,00,10.20
2014,07,16,02,01,10.20
2014,07,16,02,02,10.20
2014,07,16,02,03,10.20
2014,07,16,02,04,10.20
2014,07,16,02,05,10.20
2014,07,16,02,06,10.20
2014,07,16,02,07,10.20
2014,07,16,02,08,10.20
2014,07,16,02,09,10.20
2014,07,16,02,10,10.20
2014,07,16,02,11,10.20
2014,07,16,02,12,10.20
2014,07,16,02,13,10.30
2014,07,16,02,14,10.30
2014,07,16,02,15,10.30
2014,07,16,02,16,10.30
2014,07,16,02,17,10.30
2014,07,16,02,18,10.30
2014,07,16,02,19,10.30
2014,07,16,02,20,10.30
2014,07,16,02,21,10.30
2014,07,16,02,22,10.30
2014,07,16,02,23,10.30
2014,07,16,02,24,10.40
2014,07,16,02,25,10.40
2014,07,16,02,26,10.40
2014,07,16,02,27,10.40
2014,07,16,02,28,10.40
2014,07,16,02,29,10.40
2014,07,16,02,30,10.40
2014,07,16,02,31,10.50
2014,07,16,02,32,10.50
2014,07,16,02,33,10.50
2014,07,16,02,34,10.60
2014,07,16,02,35,10.60
2014,07,16,02,36,10.60
2014,07,16,02,37,10.60
2014,07,16,02,38,10.60
2014,07,16,02,39,10.60
2014,07,16,02,40,10.60
2014,07,16,02,41,10.70
2014,07,16,02,42,10.70
2014,07,16,02,43,10.70
2014,07,16,02,44,10.80
2014,07,16,02,45,10.80
2014,07,16,02,46,10.80
2014,07,16,02,47,10.80
2014,07,16,02,48,10.80
2014,07,16,02,49,10.80
2014,07,16,02,50,10.80
2014,07,16,02,51,10.80
2014,07,16,02,52,10.80
2014,07,16,02,53,10.70
2014,07,16,02,54,10.70
2014,07,16,02,55,10.70
2014,07,16,02,56,10.70
2014,07,16,02,57,10.70
2014,07,16,02,58,10.70
2014,07,16,02,59,10.70
2014,07,16,03,00,10.80
2014,07,16,03,01,10.80
2014,07,16,03,02,10.80
2014,07,16,03,03,10.80
2014,07,16,03,04,10.80
2014,07,16,03,05,10.80
2014,07,16,03,06,10.80
2014,07,16,03,07,10.90
2014,07,16,03,08,10.90
2014,07,16,03,09,11.00
2014,07,16,03,10,11.00
2014,07,16,03,11,11.10
2014,07,16,03,12,11.10
2014,07,16,03,13,11.20
2014,07,16,03,14,11.20
2014,07,16,03,15,11.20
2014,07,16,03,16,11.20
2014,07,16,03,17,11.20
2014,07,16,03,18,11.20
2014,07,16,03,19,11.20
2014,07,16,03,20,11.10
2014,07,16,03,21,11.10
2014,07,16,03,22,11.00
2014,07,16,03,23,11.00
2014,07,16,03,24,11.10
2014,07,16,03,25,11.10
2014,07,16,03,26,11.20
2014,07,16,03,27,11.20
2014,07,16,03,28,11.30
2014,07,16,03,29,11.30
2014,07,16,03,30,11.30
2014,07,16,03,31,11.40
2014,07,16,03,32,11.40
2014,07,16,03,33,11.50
2014,07,16,03,34,11.50
2014,07,16,03,35,11.60
2014,07,16,03,36,11.60
2014,07,16,03,37,11.60
2014,07,16,03,38,11.70
2014,07,16,03,39,11.70
2014,07,16,03,40,11.70
2014,07,16,03,41,11.70
2014,07,16,03,42,11.70
2014,07,16,03,43,11.70
2014,07,16,03,44,11.70
2014,07,16,03,45,11.70
2014,07,16,03,46,11.70
2014,07,16,03,47,11.60
2014,07,16,03,48,11.60
2014,07,16,03,49,11.60
2014,07,16,03,50,11.60
2014,07,16,03,51,11.60
2014,07,16,03,52,11.50
2014,07,16,03,53,11.50
2014,07,16,03,54,11.50
2014,07,16,03,55,11.50
2014,07,16,03,56,11.60
2014,07,16,03,57,11.60
2014,07,16,03,58,11.60
2014,07,16,03,59,11.60
2014,07,16,04,00,11.60
2014,07,16,04,01,11.60
2014,07,16,04,02,11.70
2014,07,16,04,03,11.70
2014,07,16,04,04,11.70
2014,07,16,04,05,11.70
2014,07,16,04,06,11.70
2014,07,16,04,07,11.70
2014,07,16,04,08,11.60
2014,07,16,04,09,11.60
2014,07,16,04,10,11.50
2014,07,16,04,11,11.50
2014,07,16,04,12,11.40
2014,07,16,04,13,11.40
2014,07,16,04,14,11.40
2014,07,16,04,15,11.30
2014,07,16,04,16,11.30
2014,07,16,04,17,11.30
2014,07,16,04,18,11.30
2014,07,16,04,19,11.20
2014,07,16,04,20,11.20
2014,07,16,04,21,11.10
2014,07,16,04,22,11.10
2014,07,16,04,23,11.10
2014,07,16,04,24,11.00
2014,07,16,04,25,11.00
2014,07,16,04,26,11.00
2014,07,16,04,27,11.00
2014,07,16,04,28,10.90
2014,07,16,04,29,10.90
2014,07,16,04,30,10.90
2014,07,16,04,31,10.90
2014,07,16,04,32,10.90
2014,07,16,04,33,10.90
2014,07,16,04,34,10.90
2014,07,16,04,35,10.90
2014,07,16,04,36,10.90
2014,07,16,04,37,10.90
2014,07,16,04,38,10.80
2014,07,16,04,39,10.80
2014,07,16,04,40,10.80
2014,07,16,04,41,10.80
2014,07,16,04,42,10.80
2014,07,16,04,43,10.80
2014,07,16,04,44,10.80
2014,07,16,04,45,10.80
2014,07,16,04,46,10.80
2014,07,16,04,47,10.80
2014,07,16,04,48,10.80
2014,07,16,04,49,10.80
2014,07,16,04,50,10.80
2014,07,16,04,51,10.80
2014,07,16,04,52,10.70
2014,07,16,04,53,10.70
2014,07,16,04,54,10.70
2014,07,16,04,55,10.70
2014,07,16,04,56,10.70
2014,07,16,04,57,10.60
2014,07,16,04,58,10.60
2014,07,16,04,59,10.60
2014,07,16,05,00,10.60
2014,07,16,05,01,10.60
2014,07,16,05,02,10.60
2014,07,16,05,03,10.60
2014,07,16,05,04,10.60
2014,07,16,05,05,10.60
2014,07,16,05,06,10.60
2014,07,16,05,07,10.60
2014,07,16,05,08,10.60
2014,07,16,05,09,10.60
2014,07,16,05,10,10.60
2014,07,16,05,11,10.50
2014,07,16,05,12,10.50
2014,07,16,05,13,10.50
2014,07,16,05,14,10.50
2014,07,16,05,15,10.40
2014,07,16,05,16,10.40
2014,07,16,05,17,10.40
2014,07,16,05,18,10.40
2014,07,16,05,19,10.40
2014,07,16,05,20,10.40
2014,07,16,05,21,10.40
2014,07,16,05,22,10.40
2014,07,16,05,23,10.40
2014,07,16,05,24,10.40
2014,07,16,05,25,10.40
2014,07,16,05,26,10.40
2014,07,16,05,27,10.40
2014,07,16,05,28,10.40
2014,07,16,05,29,10.40
2014,07,16,05,30,10.40
2014,07,16,05,31,10.40
2014,07,16,05,32,10.40
2014,07,16,05,33,10.40
2014,07,16,05,34,10.50
2014,07,16,05,35,10.50
2014,07,16,05,36,10.50
2014,07,16,05,37,10.50
2014,07,16,05,38,10.50
2014,07,16,05,39,10.50
2014,07,16,05,40,10.50
2014,07,16,05,41,10.60
2014,07,16,05,42,10.60
2014,07,16,05,43,10.60
2014,07,16,05,44,10.60
2014,07,16,05,45,10.60
2014,07,16,05,46,10.60
2014,07,16,05,47,10.60
2014,07,16,05,48,10.60
2014,07,16,05,49,10.60
2014,07,16,05,50,10.70
2014,07,16,05,51,10.70
2014,07,16,05,52,10.70
2014,07,16,05,53,10.70
2014,07,16,05,54,10.70
2014,07,16,05,55,10.80
2014,07,16,05,56,10.70
2014,07,16,05,57,10.80
2014,07,16,05,58,10.80
2014,07,16,05,59,10.80
2014,07,16,06,00,10.80
2014,07,16,06,01,10.80
2014,07,16,06,02,10.80
2014,07,16,06,03,10.80
2014,07,16,06,04,10.90
2014,07,16,06,05,10.90
2014,07,16,06,06,11.00
2014,07,16,06,07,11.00
2014,07,16,06,08,11.00
2014,07,16,06,09,11.00
2014,07,16,06,10,11.00
2014,07,16,06,11,11.00
2014,07,16,06,12,11.00
2014,07,16,06,13,11.00
2014,07,16,06,14,11.00
2014,07,16,06,15,11.00
2014,07,16,06,16,11.00
2014,07,16,06,17,11.00
2014,07,16,06,18,11.10
2014,07,16,06,19,11.10
2014,07,16,06,20,11.10
2014,07,16,06,21,11.10
2014,07,16,06,22,11.10
2014,07,16,06,23,11.10
2014,07,16,06,24,11.10
2014,07,16,06,25,11.10
2014,07,16,06,26,11.10
2014,07,16,06,27,11.10
2014,07,16,06,28,11.10
2014,07,16,06,29,11.10
2014,07,16,06,30,11.10
2014,07,16,06,31,11.10
2014,07,16,06,32,11.10
2014,07,16,06,33,11.10
2014,07,16,06,34,11.10
2014,07,16,06,35,11.10
2014,07,16,06,36,11.20
2014,07,16,06,37,11.20
2014,07,16,06,38,11.20
2014,07,16,06,39,11.20
2014,07,16,06,40,11.30
2014,07,16,06,41,11.30
2014,07,16,06,42,11.30
2014,07,16,06,43,11.40
2014,07,16,06,44,11.40
2014,07,16,06,45,11.50
2014,07,16,06,46,11.60
2014,07,16,06,47,11.60
2014,07,16,06,48,11.60
2014,07,16,06,49,11.70
2014,07,16,06,50,11.70
2014,07,16,06,51,11.70
2014,07,16,06,52,11.80
2014,07,16,06,53,11.80
2014,07,16,06,54,11.80
2014,07,16,06,55,11.80
2014,07,16,06,56,11.80
2014,07,16,06,57,11.80
2014,07,16,06,58,11.70
2014,07,16,06,59,11.70
2014,07,16,07,00,11.70
2014,07,16,07,01,11.60
2014,07,16,07,02,11.60
2014,07,16,07,03,11.60
2014,07,16,07,04,11.60
2014,07,16,07,05,11.60
2014,07,16,07,06,11.60
2014,07,16,07,07,11.60
2014,07,16,07,08,11.50
2014,07,16,07,09,11.60
2014,07,16,07,10,11.60
2014,07,16,07,11,11.60
2014,07,16,07,12,11.60
2014,07,16,07,13,11.70
2014,07,16,07,14,11.70
2014,07,16,07,15,11.70
2014,07,16,07,16,11.80
2014,07,16,07,17,11.80
2014,07,16,07,18,11.80
2014,07,16,07,19,11.90
2014,07,16,07,20,11.90
2014,07,16,07,21,11.90
2014,07,16,07,22,11.90
2014,07,16,07,23,11.90
2014,07,16,07,24,11.90
2014,07,16,07,25,11.90
2014,07,16,07,26,11.90
2014,07,16,07,27,11.90
2014,07,16,07,28,11.90
2014,07,16,07,29,11.90
2014,07,16,07,30,11.90
2014,07,16,07,31,11.90
2014,07,16,07,32,11.90
2014,07,16,07,33,11.90
2014,07,16,07,34,12.00
2014,07,16,07,35,12.00
2014,07,16,07,36,12.00
2014,07,16,07,37,11.90
2014,07,16,07,38,12.00
2014,07,16,07,39,12.00
2014,07,16,07,40,12.10
2014,07,16,07,41,12.10
2014,07,16,07,42,12.10
2014,07,16,07,43,12.10
2014,07,16,07,44,12.10
2014,07,16,07,45,12.10
2014,07,16,07,46,12.10
2014,07,16,07,47,12.10
2014,07,16,07,48,12.20
2014,07,16,07,49,12.20
2014,07,16,07,50,12.20
2014,07,16,07,51,12.10
2014,07,16,07,52,12.10
2014,07,16,07,53,12.10
2014,07,16,07,54,12.10
2014,07,16,07,55,12.10
2014,07,16,07,56,12.00
2014,07,16,07,57,12.00
2014,07,16,07,58,12.00
2014,07,16,07,59,11.90
2014,07,16,08,00,11.90
2014,07,16,08,01,11.90
2014,07,16,08,02,11.90
2014,07,16,08,03,11.90
2014,07,16,08,04,11.80
2014,07,16,08,05,11.80
2014,07,16,08,06,11.80
2014,07,16,08,07,11.70
2014,07,16,08,08,11.70
2014,07,16,08,09,11.70
2014,07,16,08,10,11.70
2014,07,16,08,11,11.70
2014,07,16,08,12,11.70
2014,07,16,08,13,11.70
2014,07,16,08,14,11.70
2014,07,16,08,15,11.70
2014,07,16,08,16,11.70
2014,07,16,08,17,11.70
2014,07,16,08,18,11.70
2014,07,16,08,19,11.70
2014,07,16,08,20,11.70
2014,07,16,08,21,11.70
2014,07,16,08,22,11.80
2014,07,16,08,23,11.80
2014,07,16,08,24,11.80
2014,07,16,08,25,11.80
2014,07,16,08,26,11.80
2014,07,16,08,27,11.80
2014,07,16,08,28,11.90
2014,07,16,08,29,11.90
2014,07,16,08,30,11.90
2014,07,16,08,31,11.90
2014,07,16,08,32,11.90
2014,07,16,08,33,11.90
2014,07,16,08,34,11.90
2014,07,16,08,35,11.90
2014,07,16,08,36,11.90
2014,07,16,08,37,11.90
2014,07,16,08,38,11.90
2014,07,16,08,39,11.90
2014,07,16,08,40,11.80
2014,07,16,08,41,11.80
2014,07,16,08,42,11.70
2014,07,16,08,43,11.70
2014,07,16,08,44,11.70
2014,07,16,08,45,11.60
2014,07,16,08,46,11.60
2014,07,16,08,47,11.60
2014,07,16,08,48,11.60
2014,07,16,08,49,11.60
2014,07,16,08,50,11.50
2014,07,16,08,51,11.50
2014,07,16,08,52,11.40
2014,07,16,08,53,11.40
2014,07,16,08,54,11.50
2014,07,16,08,55,11.50
2014,07,16,08,56,11.50
2014,07,16,08,57,11.50
2014,07,16,08,58,11.50
2014,07,16,08,59,11.60
2014,07,16,09,00,11.60
2014,07,16,09,01,11.70
2014,07,16,09,02,11.70
2014,07,16,09,03,11.80
2014,07,16,09,04,11.80
2014,07,16,09,05,11.90
2014,07,16,09,06,11.90
2014,07,16,09,07,12.00
2014,07,16,09,08,12.00
2014,07,16,09,09,12.10
2014,07,16,09,10,12.10
2014,07,16,09,11,12.10
2014,07,16,09,12,12.10
2014,07,16,09,13,12.10
2014,07,16,09,14,12.10
2014,07,16,09,15,12.10
2014,07,16,09,16,12.00
2014,07,16,09,17,12.00
2014,07,16,09,18,12.00
2014,07,16,09,19,12.00
2014,07,16,09,20,11.90
2014,07,16,09,21,11.80
2014,07,16,09,22,11.80
2014,07,16,09,23,11.70
2014,07,16,09,24,11.70
2014,07,16,09,25,11.60
2014,07,16,09,26,11.60
2014,07,16,09,27,11.60
2014,07,16,09,28,11.60
2014,07,16,09,29,11.50
2014,07,16,09,30,11.50
2014,07,16,09,31,11.40
2014,07,16,09,32,11.40
2014,07,16,09,33,11.40
2014,07,16,09,34,11.30
2014,07,16,09,35,11.30
2014,07,16,09,36,11.30
2014,07,16,09,37,11.20
2014,07,16,09,38,11.20
2014,07,16,09,39,11.20
2014,07,16,09,40,11.10
2014,07,16,09,41,11.10
2014,07,16,09,42,11.00
2014,07,16,09,43,11.00
2014,07,16,09,44,10.90
2014,07,16,09,45,10.90
2014,07,16,09,46,10.80
2014,07,16,09,47,10.80
2014,07,16,09,48,10.80
2014,07,16,09,49,10.80
2014,07,16,09,50,10.70
2014,07,16,09,51,10.70
2014,07,16,09,52,10.70
2014,07,16,09,53,10.70
2014,07,16,09,54,10.60
2014,07,16,09,55,10.60
2014,07,16,09,56,10.60
2014,07,16,09,57,10.60
2014,07,16,09,58,10.60
2014,07,16,09,59,10.60
2014,07,16,10,00,10.60
2014,07,16,10,01,10.60
2014,07,16,10,02,10.60
2014,07,16,10,03,10.60
2014,07,16,10,04,10.60
2014,07,16,10,05,10.50
2014,07,16,10,06,10.50
2014,07,16,10,07,10.50
2014,07,16,10,08,10.50
2014,07,16,10,09,10.50
2014,07,16,10,10,10.50
2014,07,16,10,11,10.50
2014,07,16,10,12,10.50
2014,07,16,10,13,10.50
2014,07,16,10,14,10.50
2014,07,16,10,15,10.50
2014,07,16,10,16,10.50
2014,07,16,10,17,10.60
2014,07,16,10,18,10.50
2014,07,16,10,19,10.50
2014,07,16,10,20,10.50
2014,07,16,10,21,10.60
2014,07,16,10,22,10.60
2014,07,16,10,23,10.60
2014,07,16,10,24,10.60
2014,07,16,10,25,10.60
2014,07,16,10,26,10.70
2014,07,16,10,27,10.80
2014,07,16,10,28,10.80
2014,07,16,10,29,10.80
2014,07,16,10,30,10.80
2014,07,16,10,31,10.90
2014,07,16,10,32,11.00
2014,07,16,10,33,11.00
2014,07,16,10,34,11.00
2014,07,16,10,35,10.90
2014,07,16,10,36,10.90
2014,07,16,10,37,10.90
2014,07,16,10,38,10.90
2014,07,16,10,39,10.90
2014,07,16,10,40,11.00
2014,07,16,10,41,11.00
2014,07,16,10,42,11.10
2014,07,16,10,43,11.20
2014,07,16,10,44,11.40
2014,07,16,10,45,11.50
2014,07,16,10,46,11.50
2014,07,16,10,47,11.40
2014,07,16,10,48,11.40
2014,07,16,10,49,11.50
2014,07,16,10,50,11.70
2014,07,16,10,51,11.80
2014,07,16,10,52,12.00
2014,07,16,10,53,12.00
2014,07,16,10,54,12.10
2014,07,16,10,55,12.10
2014,07,16,10,56,12.10
2014,07,16,10,57,12.20
2014,07,16,10,58,12.20
2014,07,16,10,59,12.20
2014,07,16,11,00,12.20
2014,07,16,11,01,12.20
2014,07,16,11,02,12.20
2014,07,16,11,03,12.20
2014,07,16,11,04,11.90
2014,07,16,11,05,11.50
2014,07,16,11,06,11.50
2014,07,16,11,07,11.50
2014,07,16,11,08,11.50
2014,07,16,11,09,11.40
2014,07,16,11,10,11.40
2014,07,16,11,11,11.50
2014,07,16,11,12,11.40
2014,07,16,11,13,11.40
2014,07,16,11,14,11.40
2014,07,16,11,15,11.40
2014,07,16,11,16,11.40
2014,07,16,11,17,11.40
2014,07,16,11,18,11.30
2014,07,16,11,19,11.30
2014,07,16,11,20,11.40
2014,07,16,11,21,11.60
2014,07,16,11,22,11.80
2014,07,16,11,23,12.00
2014,07,16,11,24,12.10
2014,07,16,11,25,12.20
2014,07,16,11,26,12.20
2014,07,16,11,27,12.20
2014,07,16,11,28,12.20
2014,07,16,11,29,12.30
2014,07,16,11,30,12.30
2014,07,16,11,31,12.30
2014,07,16,11,32,12.30
2014,07,16,11,33,12.30
2014,07,16,11,34,12.50
2014,07,16,11,35,12.70
2014,07,16,11,36,12.80
2014,07,16,11,37,12.90
2014,07,16,11,38,13.00
2014,07,16,11,39,13.10
2014,07,16,11,40,13.20
2014,07,16,11,41,13.30
2014,07,16,11,42,13.30
2014,07,16,11,43,13.40
2014,07,16,11,44,13.50
2014,07,16,11,45,13.60
2014,07,16,11,46,13.60
2014,07,16,11,47,13.70
2014,07,16,11,48,13.70
2014,07,16,11,49,13.70
2014,07,16,11,50,13.70
2014,07,16,11,51,13.60
2014,07,16,11,52,13.60
2014,07,16,11,53,13.50
2014,07,16,11,54,13.50
2014,07,16,11,55,13.50
2014,07,16,11,56,13.50
2014,07,16,11,57,13.50
2014,07,16,11,58,13.40
2014,07,16,11,59,13.40
2014,07,16,12,00,13.40
2014,07,16,12,01,13.40
2014,07,16,12,02,13.40
2014,07,16,12,03,13.40
2014,07,16,12,04,13.40
2014,07,16,12,05,13.30
2014,07,16,12,06,13.30
2014,07,16,12,07,13.30
2014,07,16,12,08,13.30
2014,07,16,12,09,13.30
2014,07,16,12,10,13.30
2014,07,16,12,11,13.30
2014,07,16,12,12,13.20
2014,07,16,12,13,13.00
2014,07,16,12,14,12.90
2014,07,16,12,15,12.80
2014,07,16,12,16,12.70
2014,07,16,12,17,12.70
2014,07,16,12,18,12.70
2014,07,16,12,19,12.70
2014,07,16,12,20,12.60
2014,07,16,12,21,12.60
2014,07,16,12,22,12.50
2014,07,16,12,23,12.40
2014,07,16,12,24,12.40
2014,07,16,12,25,12.30
2014,07,16,12,26,12.30
2014,07,16,12,27,12.20
2014,07,16,12,28,12.20
2014,07,16,12,29,12.20
2014,07,16,12,30,12.10
2014,07,16,12,31,12.10
2014,07,16,12,32,12.00
2014,07,16,12,33,12.00
2014,07,16,12,34,11.90
2014,07,16,12,35,11.90
2014,07,16,12,36,11.90
2014,07,16,12,37,11.90
2014,07,16,12,38,11.80
2014,07,16,12,39,11.80
2014,07,16,12,40,11.80
2014,07,16,12,41,11.80
2014,07,16,12,42,11.70
2014,07,16,12,43,11.70
2014,07,16,12,44,11.70
2014,07,16,12,45,11.60
2014,07,16,12,46,11.60
2014,07,16,12,47,11.60
2014,07,16,12,48,11.60
2014,07,16,12,49,11.60
2014,07,16,12,50,11.60
2014,07,16,12,51,11.60
2014,07,16,12,52,11.70
2014,07,16,12,53,11.70
2014,07,16,12,54,11.70
2014,07,16,12,55,11.70
2014,07,16,12,56,11.60
2014,07,16,12,57,11.60
2014,07,16,12,58,11.60
2014,07,16,12,59,11.50
2014,07,16,13,00,11.50
2014,07,16,13,01,11.50
2014,07,16,13,02,11.50
2014,07,16,13,03,11.50
2014,07,16,13,04,11.50
2014,07,16,13,05,11.50
2014,07,16,13,06,11.40
2014,07,16,13,07,11.40
2014,07,16,13,08,11.40
2014,07,16,13,09,11.40
2014,07,16,13,10,11.40
2014,07,16,13,11,11.40
2014,07,16,13,12,11.40
2014,07,16,13,13,11.40
2014,07,16,13,14,11.40
2014,07,16,13,15,11.40
2014,07,16,13,16,11.40
2014,07,16,13,17,11.40
2014,07,16,13,18,11.40
2014,07,16,13,19,11.40
2014,07,16,13,20,11.40
2014,07,16,13,21,11.40
2014,07,16,13,22,11.40
2014,07,16,13,23,11.40
2014,07,16,13,24,11.40
2014,07,16,13,25,11.40
2014,07,16,13,26,11.40
2014,07,16,13,27,11.40
2014,07,16,13,28,11.50
2014,07,16,13,29,11.50
2014,07,16,13,30,11.50
2014,07,16,13,31,11.50
2014,07,16,13,32,11.50
2014,07,16,13,33,11.40
2014,07,16,13,34,11.50
2014,07,16,13,35,11.50
2014,07,16,13,36,11.50
2014,07,16,13,37,11.60
2014,07,16,13,38,11.50
2014,07,16,13,39,11.50
2014,07,16,13,40,11.50
2014,07,16,13,41,11.50
2014,07,16,13,42,11.50
2014,07,16,13,43,11.60
2014,07,16,13,44,11.60
2014,07,16,13,45,11.60
2014,07,16,13,46,11.60
2014,07,16,13,47,11.60
2014,07,16,13,48,11.60
2014,07,16,13,49,11.60
2014,07,16,13,50,11.60
2014,07,16,13,51,11.60
2014,07,16,13,52,11.60
2014,07,16,13,53,11.60
2014,07,16,13,54,11.60
2014,07,16,13,55,11.60
2014,07,16,13,56,11.70
2014,07,16,13,57,11.70
2014,07,16,13,58,11.70
2014,07,16,13,59,11.70
2014,07,16,14,00,11.70
2014,07,16,14,01,11.70
2014,07,16,14,02,11.70
2014,07,16,14,03,11.70
2014,07,16,14,04,11.70
2014,07,16,14,05,11.80
2014,07,16,14,06,11.80
2014,07,16,14,07,11.80
2014,07,16,14,08,11.80
2014,07,16,14,09,11.90
2014,07,16,14,10,11.90
2014,07,16,14,11,11.90
2014,07,16,14,12,11.90
2014,07,16,14,13,11.90
2014,07,16,14,14,11.90
2014,07,16,14,15,11.90
2014,07,16,14,16,12.00
2014,07,16,14,17,12.00
2014,07,16,14,18,12.00
2014,07,16,14,19,12.00
2014,07,16,14,20,12.00
2014,07,16,14,21,11.90
2014,07,16,14,22,11.90
2014,07,16,14,23,11.90
2014,07,16,14,24,11.80
2014,07,16,14,25,11.80
2014,07,16,14,26,11.80
2014,07,16,14,27,11.80
2014,07,16,14,28,11.70
2014,07,16,14,29,11.70
2014,07,16,14,30,11.60
2014,07,16,14,31,11.60
2014,07,16,14,32,11.60
2014,07,16,14,33,11.60
2014,07,16,14,34,11.60
2014,07,16,14,35,11.50
2014,07,16,14,36,11.50
2014,07,16,14,37,11.50
2014,07,16,14,38,11.40
2014,07,16,14,39,11.40
2014,07,16,14,40,11.40
2014,07,16,14,41,11.40
2014,07,16,14,42,11.30
2014,07,16,14,43,11.30
2014,07,16,14,44,11.30
2014,07,16,14,45,11.30
2014,07,16,14,46,11.30
2014,07,16,14,47,11.30
2014,07,16,14,48,11.30
2014,07,16,14,49,11.30
2014,07,16,14,50,11.30
2014,07,16,14,51,11.30
2014,07,16,14,52,11.30
2014,07,16,14,53,11.30
2014,07,16,14,54,11.30
2014,07,16,14,55,11.30
2014,07,16,14,56,11.30
2014,07,16,14,57,11.30
2014,07,16,14,58,11.30
2014,07,16,14,59,11.30
2014,07,16,15,00,11.30
2014,07,16,15,01,11.30
2014,07,16,15,02,11.30
2014,07,16,15,03,11.30
2014,07,16,15,04,11.30
2014,07,16,15,05,11.30
2014,07,16,15,06,11.30
2014,07,16,15,07,11.40
2014,07,16,15,08,11.40
2014,07,16,15,09,11.40
2014,07,16,15,10,11.40
2014,07,16,15,11,11.40
2014,07,16,15,12,11.40
2014,07,16,15,13,11.30
2014,07,16,15,14,11.30
2014,07,16,15,15,11.30
2014,07,16,15,16,11.30
2014,07,16,15,17,11.40
2014,07,16,15,18,11.40
2014,07,16,15,19,11.40
2014,07,16,15,20,11.40
2014,07,16,15,21,11.40
2014,07,16,15,22,11.40
2014,07,16,15,23,11.40
2014,07,16,15,24,11.40
2014,07,16,15,25,11.40
2014,07,16,15,26,11.40
2014,07,16,15,27,11.40
2014,07,16,15,28,11.40
2014,07,16,15,29,11.40
2014,07,16,15,30,11.40
2014,07,16,15,31,11.40
2014,07,16,15,32,11.40
2014,07,16,15,33,11.40
2014,07,16,15,34,11.40
2014,07,16,15,35,11.50
2014,07,16,15,36,11.50
2014,07,16,15,37,11.50
2014,07,16,15,38,11.60
2014,07,16,15,39,11.60
2014,07,16,15,40,11.60
2014,07,16,15,41,11.60
2014,07,16,15,42,11.70
2014,07,16,15,43,11.60
2014,07,16,15,44,11.60
2014,07,16,15,45,11.60
2014,07,16,15,46,11.60
2014,07,16,15,47,11.60
2014,07,16,15,48,11.60
2014,07,16,15,49,11.60
2014,07,16,15,50,11.70
2014,07,16,15,51,11.70
2014,07,16,15,52,11.80
2014,07,16,15,53,11.80
2014,07,16,15,54,11.80
2014,07,16,15,55,11.90
2014,07,16,15,56,11.90
2014,07,16,15,57,11.90
2014,07,16,15,58,11.90
2014,07,16,15,59,11.90
2014,07,16,16,00,11.90
2014,07,16,16,01,11.90
2014,07,16,16,02,11.90
2014,07,16,16,03,11.90
2014,07,16,16,04,11.90
2014,07,16,16,05,12.00
2014,07,16,16,06,12.10
2014,07,16,16,07,12.10
2014,07,16,16,08,12.10
2014,07,16,16,09,12.10
2014,07,16,16,10,12.10
2014,07,16,16,11,12.10
2014,07,16,16,12,12.10
2014,07,16,16,13,12.10
2014,07,16,16,14,12.20
2014,07,16,16,15,12.20
2014,07,16,16,16,12.30
2014,07,16,16,17,12.30
2014,07,16,16,18,12.30
2014,07,16,16,19,12.30
2014,07,16,16,20,12.30
2014,07,16,16,21,12.30
2014,07,16,16,22,12.30
2014,07,16,16,23,12.40
2014,07,16,16,24,12.50
2014,07,16,16,25,12.60
2014,07,16,16,26,12.60
2014,07,16,16,27,12.70
2014,07,16,16,28,12.60
2014,07,16,16,29,12.60
2014,07,16,16,30,12.60
2014,07,16,16,31,12.60
2014,07,16,16,32,12.70
2014,07,16,16,33,12.70
2014,07,16,16,34,12.70
2014,07,16,16,35,12.60
2014,07,16,16,36,12.60
2014,07,16,16,37,12.50
2014,07,16,16,38,12.50
2014,07,16,16,39,12.40
2014,07,16,16,40,12.40
2014,07,16,16,41,12.30
2014,07,16,16,42,12.30
2014,07,16,16,43,12.30
2014,07,16,16,44,12.30
2014,07,16,16,45,12.20
2014,07,16,16,46,12.20
2014,07,16,16,47,12.20
2014,07,16,16,48,12.10
2014,07,16,16,49,12.20
2014,07,16,16,50,12.20
2014,07,16,16,51,12.20
2014,07,16,16,52,12.20
2014,07,16,16,53,12.20
2014,07,16,16,54,12.30
2014,07,16,16,55,12.40
2014,07,16,16,56,12.50
2014,07,16,16,57,12.50
2014,07,16,16,58,12.50
2014,07,16,16,59,12.40
2014,07,16,17,00,12.40
2014,07,16,17,01,12.30
2014,07,16,17,02,12.30
2014,07,16,17,03,12.30
2014,07,16,17,04,12.30
2014,07,16,17,05,12.30
2014,07,16,17,06,12.30
2014,07,16,17,07,12.30
2014,07,16,17,08,12.30
2014,07,16,17,09,12.30
2014,07,16,17,10,12.30
2014,07,16,17,11,12.30
2014,07,16,17,12,12.30
2014,07,16,17,13,12.30
2014,07,16,17,14,12.30
2014,07,16,17,15,12.30
2014,07,16,17,16,12.20
2014,07,16,17,17,12.20
2014,07,16,17,18,12.10
2014,07,16,17,19,12.10